| time (UTC) | temp C | wind direction | speed KPH | gust KPH | rain 1hr cm | rain 24hr cm | rain mn cm | humidity % | barometer mb |
| 20260510122308 | 22 | 308 | 0.0 | 0.0 | 0.00 | 0.03 | 0.03 | 99 | 1016.1 |
| 20260510121804 | 22 | 330 | 0.0 | 0.0 | 0.00 | 0.03 | 0.03 | 99 | 1016.2 |
| 20260510121302 | 22 | 320 | 0.0 | 0.0 | 0.00 | 0.03 | 0.03 | 99 | 1016.3 |
| 20260510120758 | 22 | 340 | 0.0 | 0.0 | 0.00 | 0.03 | 0.03 | 99 | 1016.0 |
| 20260510120255 | 21 | 346 | 0.0 | 0.0 | 0.00 | 0.03 | 0.03 | 99 | 1016.0 |
| 20260510115751 | 21 | 347 | 0.0 | 0.0 | 0.00 | 0.03 | 0.03 | 99 | 1016.2 |
| 20260510115249 | 21 | 337 | 0.0 | 0.0 | 0.00 | 0.03 | 0.03 | 99 | 1015.9 |
| 20260510114744 | 21 | 343 | 0.0 | 0.0 | 0.00 | 0.03 | 0.03 | 99 | 1015.8 |
| 20260510114242 | 21 | 349 | 0.0 | 0.0 | 0.00 | 0.03 | 0.03 | 99 | 1016.0 |
| 20260510113736 | 21 | 349 | 0.0 | 0.0 | 0.00 | 0.03 | 0.03 | 99 | 1015.8 |
| 20260510113234 | 21 | 336 | 0.0 | 0.0 | 0.00 | 0.03 | 0.03 | 99 | 1015.8 |
| 20260510112730 | 21 | 343 | 0.0 | 0.0 | 0.00 | 0.03 | 0.03 | 99 | 1015.9 |
| 20260510112227 | 21 | 335 | 0.0 | 0.0 | 0.00 | 0.03 | 0.03 | 99 | 1015.7 |
| 20260510111723 | 21 | 333 | 0.0 | 0.0 | 0.00 | 0.03 | 0.03 | 99 | 1015.3 |
| 20260510111220 | 20 | 343 | 0.0 | 0.0 | 0.00 | 0.03 | 0.03 | 99 | 1015.4 |
| 20260510110720 | 20 | 344 | 0.0 | 0.0 | 0.00 | 0.03 | 0.03 | 99 | 1015.3 |
| 20260510110218 | 20 | 5 | 0.0 | 0.0 | 0.00 | 0.03 | 0.03 | 99 | 1015.2 |
| 20260510105717 | 20 | 348 | 0.0 | 0.0 | 0.00 | 0.03 | 0.03 | 99 | 1015.3 |
| 20260510105217 | 20 | 335 | 0.0 | 0.0 | 0.00 | 0.03 | 0.03 | 99 | 1015.3 |
| 20260510104715 | 20 | 344 | 0.0 | 0.0 | 0.00 | 0.03 | 0.03 | 99 | 1015.1 |
| 20260510104212 | 20 | 347 | 0.0 | 0.0 | 0.00 | 0.03 | 0.03 | 99 | 1015.2 |
| 20260510103708 | 20 | 347 | 0.0 | 0.0 | 0.00 | 0.03 | 0.03 | 99 | 1015.1 |
| 20260510103205 | 20 | 342 | 0.0 | 0.0 | 0.00 | 0.03 | 0.03 | 99 | 1015.0 |
| 20260510102700 | 20 | 357 | 0.0 | 0.0 | 0.00 | 0.03 | 0.03 | 99 | 1015.1 |
| 20260510102156 | 20 | 345 | 0.0 | 0.0 | 0.00 | 0.03 | 0.03 | 99 | 1015.0 |
| 20260510101654 | 21 | 345 | 0.0 | 0.0 | 0.00 | 0.03 | 0.03 | 99 | 1015.2 |
| 20260510101152 | 20 | 339 | 0.0 | 0.0 | 0.00 | 0.03 | 0.03 | 99 | 1015.1 |
| 20260510100652 | 20 | 347 | 0.0 | 0.0 | 0.00 | 0.03 | 0.03 | 99 | 1014.9 |
| 20260510100151 | 20 | 344 | 0.0 | 0.0 | 0.00 | 0.03 | 0.03 | 99 | 1014.8 |
| 20260510095646 | 20 | 340 | 0.0 | 0.0 | 0.00 | 0.03 | 0.03 | 99 | 1014.7 |
| 20260510095141 | 20 | 347 | 0.0 | 0.0 | 0.00 | 0.03 | 0.03 | 99 | 1014.8 |
| 20260510094640 | 20 | 347 | 0.0 | 0.0 | 0.00 | 0.03 | 0.03 | 99 | 1014.7 |
| 20260510094136 | 20 | 347 | 0.0 | 0.0 | 0.00 | 0.03 | 0.03 | 99 | 1014.5 |
| 20260510093632 | 20 | 344 | 0.0 | 0.0 | 0.00 | 0.03 | 0.03 | 99 | 1014.7 |
| 20260510093129 | 20 | 341 | 0.0 | 0.0 | 0.00 | 0.03 | 0.03 | 99 | 1014.4 |
| 20260510092626 | 20 | 344 | 0.0 | 0.0 | 0.00 | 0.03 | 0.03 | 99 | 1014.5 |
| 20260510092121 | 20 | 344 | 0.0 | 0.0 | 0.00 | 0.03 | 0.03 | 99 | 1014.3 |
| 20260510091617 | 20 | 348 | 0.0 | 0.0 | 0.00 | 0.03 | 0.03 | 99 | 1014.2 |
| 20260510091113 | 20 | 348 | 0.0 | 0.0 | 0.00 | 0.03 | 0.03 | 99 | 1014.3 |
| 20260510090611 | 20 | 351 | 0.0 | 0.0 | 0.00 | 0.03 | 0.03 | 99 | 1014.2 |
| 20260510090107 | 20 | 351 | 0.0 | 0.0 | 0.00 | 0.03 | 0.03 | 99 | 1014.0 |
| 20260510085602 | 20 | 351 | 0.0 | 0.0 | 0.00 | 0.03 | 0.03 | 99 | 1014.0 |
| 20260510085058 | 20 | 351 | 0.0 | 0.0 | 0.00 | 0.03 | 0.03 | 99 | 1014.1 |
| 20260510084554 | 20 | 351 | 0.0 | 0.0 | 0.00 | 0.03 | 0.03 | 99 | 1014.1 |
| 20260510084051 | 20 | 351 | 0.0 | 0.0 | 0.00 | 0.03 | 0.03 | 99 | 1014.1 |
| 20260510083548 | 20 | 352 | 0.0 | 0.0 | 0.00 | 0.03 | 0.03 | 99 | 1014.0 |
| 20260510083044 | 20 | 347 | 0.0 | 0.0 | 0.00 | 0.03 | 0.03 | 99 | 1014.0 |
| 20260510082541 | 20 | 342 | 0.0 | 0.0 | 0.00 | 0.03 | 0.03 | 99 | 1014.1 |
| 20260510082036 | 20 | 344 | 0.0 | 0.0 | 0.00 | 0.03 | 0.03 | 99 | 1014.1 |
| 20260510081531 | 20 | 344 | 0.0 | 0.0 | 0.13 | 0.03 | 0.03 | 99 | 1013.9 |
| 20260510081027 | 20 | 344 | 0.0 | 0.0 | 0.13 | 0.03 | 0.03 | 99 | 1013.8 |
| 20260510080526 | 20 | 344 | 0.0 | 0.0 | 0.00 | 0.00 | 0.00 | 99 | 1014.0 |
| 20260510080024 | 20 | 344 | 0.0 | 0.0 | 0.00 | 0.00 | 0.00 | 99 | 1013.9 |
| 20260510075521 | 20 | 340 | 0.0 | 0.0 | 0.00 | 0.00 | 0.00 | 99 | 1013.8 |
| 20260510075017 | 20 | 340 | 0.0 | 0.0 | 0.00 | 0.00 | 0.00 | 99 | 1013.7 |
| 20260510074516 | 20 | 342 | 0.0 | 0.0 | 0.00 | 0.00 | 0.00 | 99 | 1013.6 |
| 20260510074010 | 20 | 340 | 0.0 | 0.0 | 0.00 | 0.00 | 0.00 | 99 | 1013.6 |
| 20260510073507 | 21 | 339 | 0.0 | 0.0 | 0.00 | 0.00 | 0.00 | 99 | 1013.7 |
| 20260510073004 | 20 | 346 | 0.0 | 0.0 | 0.00 | 0.00 | 0.00 | 99 | 1013.7 |
| 20260510072500 | 21 | 351 | 0.0 | 0.0 | 0.00 | 0.00 | 0.00 | 99 | 1013.5 |
| 20260510071955 | 21 | 351 | 0.0 | 0.0 | 0.00 | 0.00 | 0.00 | 99 | 1013.6 |
| 20260510071452 | 21 | 351 | 0.0 | 0.0 | 0.00 | 0.00 | 0.00 | 99 | 1013.6 |
| 20260510070950 | 21 | 351 | 0.0 | 0.0 | 0.00 | 0.00 | 0.00 | 99 | 1013.7 |
| 20260510070447 | 21 | 353 | 0.0 | 0.0 | 0.00 | 0.00 | 0.00 | 99 | 1013.7 |
| 20260510065943 | 21 | 2 | 0.0 | 0.0 | 0.00 | 0.00 | 0.00 | 99 | 1013.7 |
| 20260510065440 | 21 | 354 | 0.0 | 0.0 | 0.00 | 0.00 | 0.00 | 99 | 1013.7 |
| 20260510064936 | 21 | 13 | 0.0 | 0.0 | 0.00 | 0.00 | 0.00 | 99 | 1013.6 |
| 20260510064434 | 21 | 353 | 0.0 | 0.0 | 0.00 | 0.00 | 0.00 | 99 | 1013.7 |
| 20260510063930 | 21 | 350 | 0.0 | 0.0 | 0.00 | 0.00 | 0.00 | 99 | 1013.8 |
| 20260510063426 | 21 | 340 | 0.0 | 0.0 | 0.00 | 0.00 | 0.00 | 99 | 1013.8 |
| 20260510062925 | 21 | 7 | 0.0 | 0.0 | 0.00 | 0.00 | 0.00 | 99 | 1013.9 |
| 20260510062424 | 21 | 13 | 0.0 | 0.0 | 0.00 | 0.00 | 0.00 | 99 | 1014.0 |
| 20260510061920 | 21 | 17 | 0.0 | 0.0 | 0.00 | 0.00 | 0.00 | 99 | 1014.0 |
| 20260510061417 | 21 | 19 | 0.0 | 0.0 | 0.00 | 0.00 | 0.00 | 99 | 1014.0 |
| 20260510060913 | 21 | 345 | 0.0 | 0.0 | 0.00 | 0.00 | 0.00 | 99 | 1014.4 |
| 20260510060410 | 21 | 313 | 0.0 | 0.0 | 0.00 | 0.00 | 0.00 | 99 | 1014.2 |
| 20260510055906 | 21 | 6 | 0.0 | 0.0 | 0.00 | 0.00 | 0.00 | 99 | 1014.2 |
| 20260510055402 | 21 | 356 | 0.0 | 0.0 | 0.00 | 0.00 | 0.00 | 99 | 1014.5 |
| 20260510054900 | 21 | 357 | 0.0 | 0.0 | 0.00 | 0.00 | 0.00 | 99 | 1014.4 |
| 20260510054356 | 21 | 345 | 0.0 | 0.0 | 0.00 | 0.00 | 0.00 | 99 | 1014.6 |
| 20260510053851 | 21 | 342 | 0.0 | 0.0 | 0.00 | 0.00 | 0.00 | 99 | 1014.8 |
| 20260510053347 | 21 | 347 | 0.0 | 0.0 | 0.00 | 0.00 | 0.00 | 99 | 1014.8 |
| 20260510052843 | 21 | 344 | 0.0 | 0.0 | 0.00 | 0.00 | 0.00 | 99 | 1014.9 |
| 20260510052339 | 21 | 344 | 0.0 | 0.0 | 0.00 | 0.00 | 0.00 | 99 | 1015.1 |
| 20260510051835 | 21 | 344 | 0.0 | 0.0 | 0.00 | 0.00 | 0.00 | 99 | 1015.1 |
| 20260510051332 | 21 | 344 | 0.0 | 0.0 | 0.00 | 0.00 | 0.00 | 99 | 1015.3 |
| 20260510050830 | 21 | 340 | 0.0 | 0.0 | 0.00 | 0.00 | 0.00 | 99 | 1015.1 |
| 20260510050326 | 21 | 332 | 0.0 | 0.0 | 0.00 | 0.00 | 0.00 | 99 | 1015.3 |
| 20260510045823 | 21 | 332 | 0.0 | 0.0 | 0.00 | 0.00 | 0.00 | 99 | 1015.3 |
| 20260510045319 | 21 | 348 | 0.0 | 0.0 | 0.00 | 0.00 | 0.00 | 99 | 1015.3 |
| 20260510044817 | 21 | 343 | 0.0 | 0.0 | 0.00 | 0.00 | 0.00 | 99 | 1015.3 |
| 20260510044313 | 21 | 347 | 0.0 | 0.0 | 0.00 | 0.00 | 0.00 | 99 | 1015.4 |
| 20260510043810 | 21 | 341 | 0.0 | 0.0 | 0.00 | 0.00 | 0.00 | 99 | 1015.2 |
| 20260510043306 | 21 | 344 | 0.0 | 0.0 | 0.00 | 0.00 | 0.00 | 99 | 1015.2 |
| 20260510042804 | 21 | 339 | 0.0 | 0.0 | 0.00 | 0.00 | 0.00 | 99 | 1015.7 |
| 20260510042259 | 21 | 344 | 0.0 | 0.0 | 0.00 | 0.00 | 0.00 | 99 | 1015.4 |
| 20260510041756 | 21 | 346 | 0.0 | 0.0 | 0.00 | 0.00 | 0.00 | 99 | 1015.4 |
| 20260510041253 | 21 | 343 | 0.0 | 0.0 | 0.00 | 0.00 | 0.00 | 99 | 1015.6 |
| 20260510040751 | 21 | 308 | 0.0 | 0.0 | 0.00 | 0.00 | 0.00 | 99 | 1015.3 |
| 20260510040247 | 21 | 331 | 0.0 | 0.0 | 0.00 | 0.00 | 0.00 | 99 | 1015.4 |
| 20260510035743 | 21 | 334 | 0.0 | 0.0 | 0.00 | 0.36 | 0.36 | 99 | 1015.4 |
| 20260510035239 | 21 | 309 | 0.0 | 0.0 | 0.00 | 0.36 | 0.36 | 99 | 1015.4 |
| 20260510034735 | 21 | 332 | 0.0 | 0.0 | 0.00 | 0.36 | 0.36 | 99 | 1015.5 |
| 20260510034233 | 21 | 336 | 0.0 | 0.0 | 0.00 | 0.36 | 0.36 | 99 | 1015.7 |
| 20260510033729 | 21 | 323 | 0.0 | 0.0 | 0.00 | 0.36 | 0.36 | 99 | 1015.3 |
| 20260510033227 | 21 | 92 | 0.0 | 0.0 | 0.00 | 0.36 | 0.36 | 99 | 1015.5 |
| 20260510032723 | 21 | 243 | 0.0 | 0.0 | 0.00 | 0.36 | 0.36 | 99 | 1015.7 |
| 20260510032219 | 21 | 7 | 0.0 | 0.0 | 0.00 | 0.36 | 0.36 | 99 | 1015.6 |
| 20260510031714 | 21 | 337 | 0.0 | 0.0 | 0.00 | 0.36 | 0.36 | 99 | 1015.5 |
| 20260510031210 | 21 | 344 | 0.0 | 0.0 | 0.00 | 0.36 | 0.36 | 99 | 1015.6 |
| 20260510030709 | 21 | 338 | 0.0 | 0.0 | 0.00 | 0.36 | 0.36 | 99 | 1015.6 |
| 20260510030208 | 22 | 344 | 0.0 | 0.0 | 0.00 | 0.36 | 0.36 | 99 | 1015.2 |
| 20260510025705 | 22 | 208 | 0.0 | 0.0 | 0.00 | 0.36 | 0.36 | 99 | 1015.4 |
| 20260510025202 | 22 | 330 | 0.0 | 0.0 | 0.00 | 0.36 | 0.36 | 99 | 1015.3 |
| 20260510024658 | 22 | 344 | 0.0 | 0.0 | 0.00 | 0.36 | 0.36 | 99 | 1015.2 |
| 20260510024155 | 21 | 312 | 0.0 | 0.0 | 0.00 | 0.36 | 0.36 | 99 | 1015.2 |
| 20260510023651 | 21 | 343 | 0.0 | 0.0 | 0.00 | 0.36 | 0.36 | 99 | 1014.8 |
| 20260510023148 | 22 | 97 | 0.0 | 0.0 | 0.00 | 0.36 | 0.36 | 99 | 1014.4 |
| 20260510022643 | 22 | 348 | 0.0 | 0.0 | 0.00 | 0.36 | 0.36 | 99 | 1014.9 |
| 20260510022138 | 22 | 308 | 0.0 | 0.0 | 0.00 | 0.36 | 0.36 | 99 | 1015.2 |
| 20260510021634 | 21 | 208 | 0.0 | 0.0 | 0.00 | 0.36 | 0.36 | 99 | 1014.6 |
| 20260510021132 | 21 | 339 | 0.0 | 0.0 | 0.00 | 0.36 | 0.36 | 99 | 1014.6 |
| 20260510020631 | 21 | 339 | 0.0 | 0.0 | 0.00 | 0.36 | 0.36 | 99 | 1014.5 |
| 20260510020127 | 21 | 348 | 0.0 | 0.0 | 0.00 | 0.36 | 0.36 | 99 | 1014.4 |
| 20260510015624 | 22 | 348 | 0.0 | 0.0 | 0.00 | 0.36 | 0.36 | 99 | 1014.7 |
| 20260510015120 | 22 | 329 | 0.0 | 0.0 | 0.00 | 0.36 | 0.36 | 99 | 1014.5 |
| 20260510014615 | 22 | 342 | 0.0 | 0.0 | 0.00 | 0.36 | 0.36 | 99 | 1014.2 |
| 20260510014114 | 22 | 333 | 0.0 | 0.0 | 0.00 | 0.36 | 0.36 | 99 | 1014.0 |
| 20260510013613 | 21 | 2 | 0.0 | 0.0 | 0.00 | 0.36 | 0.36 | 99 | 1014.4 |
| 20260510013109 | 21 | 248 | 0.0 | 0.0 | 0.00 | 0.36 | 0.36 | 99 | 1014.2 |
| 20260510012608 | 21 | 347 | 0.0 | 0.0 | 0.00 | 0.36 | 0.36 | 99 | 1014.1 |
| 20260510012105 | 21 | 344 | 0.0 | 0.0 | 0.00 | 0.36 | 0.36 | 99 | 1014.1 |
| 20260510011604 | 21 | 341 | 0.0 | 0.0 | 0.00 | 0.36 | 0.36 | 99 | 1014.0 |
| 20260510011101 | 21 | 342 | 0.0 | 0.0 | 0.00 | 0.36 | 0.36 | 99 | 1013.8 |
| 20260510010557 | 21 | 339 | 0.0 | 0.0 | 0.00 | 0.36 | 0.36 | 99 | 1013.6 |
| 20260510010055 | 21 | 350 | 0.0 | 0.0 | 0.00 | 0.36 | 0.36 | 99 | 1013.6 |
| 20260510005550 | 21 | 347 | 0.0 | 0.0 | 0.00 | 0.36 | 0.36 | 99 | 1013.7 |
| 20260510005048 | 21 | 1 | 0.0 | 0.0 | 0.00 | 0.36 | 0.36 | 99 | 1013.8 |
| 20260510004545 | 21 | 341 | 0.0 | 0.0 | 0.00 | 0.36 | 0.36 | 99 | 1014.2 |
| 20260510004043 | 22 | 344 | 0.0 | 0.0 | 0.00 | 0.36 | 0.36 | 99 | 1014.1 |
| 20260510003540 | 22 | 346 | 0.0 | 0.0 | 0.00 | 0.36 | 0.36 | 99 | 1014.3 |
| 20260510003035 | 22 | 309 | 0.0 | 0.0 | 0.00 | 0.36 | 0.36 | 99 | 1014.4 |
| 20260510002531 | 22 | 330 | 0.0 | 0.0 | 0.00 | 0.36 | 0.36 | 99 | 1013.9 |
| 20260510002028 | 22 | 264 | 0.0 | 0.0 | 0.18 | 0.36 | 0.36 | 99 | 1014.4 |
| 20260510001525 | 22 | 359 | 0.0 | 0.0 | 0.18 | 0.36 | 0.36 | 99 | 1014.1 |
| 20260510001023 | 22 | 285 | 0.0 | 0.0 | 0.00 | 0.33 | 0.33 | 99 | 1014.1 |
| 20260510000518 | 22 | 288 | 0.0 | 0.0 | 0.13 | 0.33 | 0.33 | 99 | 1014.1 |
| 20260510000016 | 22 | 333 | 0.0 | 0.0 | 0.13 | 0.33 | 0.33 | 99 | 1014.1 |
| 20260509235512 | 22 | 341 | 0.0 | 0.0 | 0.00 | 0.30 | 0.30 | 99 | 1014.0 |
| 20260509235009 | 22 | 330 | 0.0 | 0.0 | 0.00 | 0.30 | 0.30 | 98 | 1014.2 |
| 20260509234505 | 22 | 335 | 0.0 | 0.0 | 0.00 | 0.30 | 0.30 | 98 | 1014.0 |
| 20260509234003 | 22 | 337 | 0.0 | 0.0 | 0.00 | 0.30 | 0.30 | 98 | 1013.9 |
| 20260509233500 | 22 | 328 | 0.0 | 0.0 | 0.00 | 0.30 | 0.30 | 98 | 1013.9 |
| 20260509232956 | 22 | 342 | 0.0 | 0.0 | 0.00 | 0.30 | 0.30 | 98 | 1014.1 |
| 20260509232455 | 22 | 349 | 0.0 | 0.0 | 0.00 | 0.30 | 0.30 | 98 | 1013.6 |
| 20260509231950 | 22 | 333 | 0.0 | 0.0 | 0.00 | 0.30 | 0.30 | 98 | 1013.9 |
| 20260509231447 | 22 | 280 | 0.0 | 0.0 | 0.00 | 0.30 | 0.30 | 98 | 1013.7 |
| 20260509230945 | 22 | 343 | 0.0 | 0.0 | 0.00 | 0.30 | 0.30 | 97 | 1013.9 |
| 20260509230441 | 22 | 313 | 0.0 | 0.0 | 0.00 | 0.30 | 0.30 | 97 | 1013.7 |
| 20260509225937 | 22 | 7 | 0.0 | 0.0 | 0.00 | 0.30 | 0.30 | 97 | 1013.6 |
| 20260509225434 | 22 | 100 | 0.0 | 0.0 | 0.00 | 0.30 | 0.30 | 97 | 1013.8 |
| 20260509224930 | 22 | 327 | 0.0 | 0.0 | 0.00 | 0.30 | 0.30 | 97 | 1013.9 |
| 20260509224425 | 22 | 341 | 0.0 | 0.0 | 0.00 | 0.30 | 0.30 | 97 | 1013.8 |
| 20260509223923 | 22 | 334 | 0.0 | 0.0 | 0.00 | 0.30 | 0.30 | 97 | 1014.0 |
| 20260509223419 | 23 | 277 | 0.0 | 0.0 | 0.00 | 0.30 | 0.30 | 96 | 1014.2 |
| 20260509222917 | 23 | 295 | 0.0 | 0.0 | 0.00 | 0.30 | 0.30 | 96 | 1014.0 |
| 20260509222412 | 23 | 26 | 0.0 | 0.0 | 0.18 | 0.30 | 0.30 | 96 | 1013.9 |
| 20260509221908 | 23 | 329 | 0.0 | 0.0 | 0.30 | 0.30 | 0.30 | 96 | 1013.7 |
| 20260509221405 | 23 | 314 | 0.0 | 0.0 | 0.13 | 0.28 | 0.28 | 95 | 1013.9 |
| 20260509220901 | 23 | 309 | 0.0 | 0.0 | 0.00 | 0.25 | 0.25 | 95 | 1014.0 |
| 20260509220357 | 23 | 14 | 0.0 | 0.0 | 0.00 | 0.25 | 0.25 | 95 | 1013.5 |
| 20260509215852 | 23 | 330 | 0.0 | 0.0 | 0.00 | 0.25 | 0.25 | 95 | 1013.7 |
| 20260509215349 | 23 | 321 | 0.0 | 0.0 | 0.00 | 0.25 | 0.25 | 95 | 1013.6 |
| 20260509214846 | 23 | 300 | 0.0 | 0.0 | 0.00 | 0.25 | 0.25 | 96 | 1013.5 |
| 20260509214343 | 23 | 300 | 0.0 | 0.0 | 0.00 | 0.25 | 0.25 | 96 | 1013.6 |
| 20260509213840 | 23 | 19 | 0.0 | 0.0 | 0.00 | 0.25 | 0.25 | 97 | 1013.7 |
| 20260509213335 | 23 | 335 | 0.0 | 0.0 | 0.00 | 0.25 | 0.25 | 97 | 1013.8 |
| 20260509212833 | 24 | 344 | 0.0 | 0.0 | 0.00 | 0.25 | 0.25 | 97 | 1013.8 |
| 20260509212331 | 24 | 3 | 0.0 | 0.0 | 0.00 | 0.25 | 0.25 | 97 | 1013.8 |
| 20260509211827 | 24 | 39 | 0.0 | 0.0 | 0.00 | 0.25 | 0.25 | 97 | 1013.6 |
| 20260509211323 | 24 | 336 | 0.0 | 0.0 | 0.00 | 0.25 | 0.25 | 96 | 1013.7 |
| 20260509210819 | 24 | 351 | 0.0 | 0.0 | 0.00 | 0.25 | 0.25 | 96 | 1013.7 |
| 20260509210317 | 25 | 339 | 0.0 | 0.0 | 0.00 | 0.25 | 0.25 | 96 | 1013.7 |
| 20260509205817 | 25 | 354 | 0.0 | 0.0 | 0.00 | 0.25 | 0.25 | 96 | 1013.7 |
| 20260509205312 | 25 | 344 | 0.0 | 0.0 | 0.00 | 0.25 | 0.25 | 96 | 1013.4 |
| 20260509204808 | 25 | 8 | 0.0 | 0.0 | 0.00 | 0.25 | 0.25 | 95 | 1013.4 |
| 20260509204304 | 25 | 340 | 0.0 | 0.0 | 0.00 | 0.25 | 0.25 | 95 | 1013.2 |
| 20260509203800 | 25 | 5 | 0.0 | 0.0 | 0.00 | 0.25 | 0.25 | 95 | 1013.3 |
| 20260509203258 | 25 | 345 | 0.0 | 0.0 | 0.00 | 0.25 | 0.25 | 94 | 1013.3 |
| 20260509202754 | 25 | 289 | 0.0 | 0.0 | 0.48 | 0.25 | 0.25 | 93 | 1013.3 |
| 20260509202250 | 25 | 328 | 0.0 | 0.0 | 1.07 | 0.25 | 0.25 | 93 | 1013.5 |
| 20260509201750 | 26 | 317 | 0.0 | 0.0 | 0.79 | 0.20 | 0.20 | 91 | 1013.4 |
| 20260509201247 | 26 | 250 | 0.0 | 0.0 | 0.00 | 0.08 | 0.08 | 89 | 1013.8 |
| 20260509200743 | 26 | 316 | 0.0 | 0.0 | 0.00 | 0.08 | 0.08 | 88 | 1013.7 |
| 20260509200238 | 26 | 298 | 0.0 | 0.0 | 0.00 | 0.08 | 0.08 | 87 | 1013.4 |
| 20260509195734 | 26 | 218 | 0.0 | 0.0 | 0.00 | 0.08 | 0.08 | 87 | 1013.2 |
| 20260509195230 | 26 | 332 | 0.0 | 0.0 | 0.00 | 0.08 | 0.08 | 87 | 1013.2 |
| 20260509194724 | 26 | 236 | 0.0 | 0.0 | 0.00 | 0.08 | 0.08 | 88 | 1013.4 |
| 20260509194221 | 26 | 287 | 0.0 | 0.0 | 0.00 | 0.08 | 0.08 | 88 | 1013.5 |
| 20260509193718 | 26 | 300 | 0.0 | 0.0 | 0.00 | 0.08 | 0.08 | 88 | 1013.5 |
| 20260509193217 | 26 | 339 | 0.0 | 0.0 | 0.00 | 0.08 | 0.08 | 88 | 1013.3 |
| 20260509192714 | 26 | 343 | 0.0 | 0.0 | 0.00 | 0.08 | 0.08 | 87 | 1013.3 |
| 20260509192209 | 26 | 337 | 0.0 | 0.0 | 0.18 | 0.08 | 0.08 | 87 | 1013.3 |
| 20260509191705 | 26 | 338 | 0.0 | 0.0 | 0.18 | 0.08 | 0.08 | 86 | 1013.2 |
| 20260509191201 | 26 | 324 | 0.0 | 0.0 | 0.00 | 0.05 | 0.05 | 85 | 1013.3 |
| 20260509190657 | 26 | 332 | 0.0 | 0.0 | 0.00 | 0.05 | 0.05 | 85 | 1013.2 |
| 20260509190155 | 26 | 329 | 0.0 | 0.0 | 0.00 | 0.05 | 0.05 | 83 | 1013.2 |
| 20260509185653 | 26 | 304 | 0.0 | 0.0 | 0.00 | 0.05 | 0.05 | 82 | 1013.2 |
| 20260509185148 | 26 | 347 | 0.0 | 0.0 | 0.00 | 0.05 | 0.05 | 80 | 1013.2 |
| 20260509184646 | 27 | 312 | 0.0 | 0.0 | 0.00 | 0.05 | 0.05 | 80 | 1013.6 |
| 20260509184143 | 27 | 298 | 0.0 | 0.0 | 0.00 | 0.05 | 0.05 | 80 | 1013.5 |
| 20260509183639 | 27 | 298 | 0.0 | 0.0 | 0.00 | 0.05 | 0.05 | 79 | 1013.4 |
| 20260509183134 | 27 | 260 | 0.0 | 0.0 | 0.00 | 0.05 | 0.05 | 79 | 1013.6 |
| 20260509182630 | 28 | 309 | 0.0 | 0.0 | 0.00 | 0.05 | 0.05 | 78 | 1013.5 |
| 20260509182128 | 28 | 243 | 0.0 | 0.0 | 0.00 | 0.05 | 0.05 | 77 | 1013.6 |
| 20260509181626 | 28 | 245 | 0.0 | 0.0 | 0.00 | 0.05 | 0.05 | 78 | 1013.9 |
| 20260509181123 | 28 | 343 | 0.0 | 0.0 | 0.00 | 0.05 | 0.05 | 77 | 1013.9 |
| 20260509180620 | 28 | 182 | 0.0 | 0.0 | 0.00 | 0.05 | 0.05 | 76 | 1013.8 |
| 20260509180116 | 28 | 345 | 0.0 | 0.0 | 0.00 | 0.05 | 0.05 | 76 | 1013.7 |
| 20260509175611 | 28 | 255 | 0.0 | 0.0 | 0.00 | 0.05 | 0.05 | 76 | 1013.7 |
| 20260509175109 | 28 | 75 | 0.0 | 0.0 | 0.00 | 0.05 | 0.05 | 77 | 1013.8 |
| 20260509174605 | 28 | 293 | 0.0 | 0.0 | 0.00 | 0.05 | 0.05 | 77 | 1013.8 |
| 20260509174100 | 28 | 248 | 0.0 | 0.0 | 0.00 | 0.05 | 0.05 | 76 | 1013.7 |
| 20260509173555 | 28 | 315 | 0.0 | 0.0 | 0.00 | 0.05 | 0.05 | 78 | 1014.1 |
| 20260509173052 | 28 | 323 | 0.0 | 0.0 | 0.00 | 0.05 | 0.05 | 78 | 1013.9 |
| 20260509172549 | 28 | 290 | 0.0 | 0.0 | 0.00 | 0.05 | 0.05 | 78 | 1013.8 |
| 20260509172044 | 28 | 325 | 0.0 | 0.0 | 0.00 | 0.05 | 0.05 | 79 | 1013.9 |
| 20260509171541 | 28 | 205 | 0.0 | 0.0 | 0.00 | 0.05 | 0.05 | 79 | 1013.8 |
| 20260509171037 | 27 | 312 | 0.0 | 0.0 | 0.00 | 0.05 | 0.05 | 80 | 1013.9 |
| 20260509170533 | 27 | 280 | 0.0 | 0.0 | 0.00 | 0.05 | 0.05 | 80 | 1013.8 |
| 20260509170029 | 27 | 319 | 0.0 | 0.0 | 0.00 | 0.05 | 0.05 | 80 | 1013.8 |
| 20260509165527 | 27 | 353 | 0.0 | 0.0 | 0.00 | 0.05 | 0.05 | 81 | 1013.8 |
| 20260509165023 | 27 | 351 | 0.0 | 0.0 | 0.00 | 0.05 | 0.05 | 81 | 1014.1 |
| 20260509164519 | 27 | 348 | 0.0 | 0.0 | 0.00 | 0.05 | 0.05 | 81 | 1014.0 |
| 20260509164015 | 27 | 347 | 0.0 | 0.0 | 0.00 | 0.05 | 0.05 | 81 | 1014.0 |
| 20260509163514 | 27 | 10 | 0.0 | 0.0 | 0.00 | 0.05 | 0.05 | 81 | 1014.2 |
| 20260509163014 | 27 | 332 | 0.0 | 0.0 | 0.00 | 0.05 | 0.05 | 83 | 1014.1 |
| 20260509162512 | 26 | 348 | 0.0 | 0.0 | 0.00 | 0.05 | 0.05 | 84 | 1014.2 |
| 20260509162008 | 26 | 348 | 0.0 | 0.0 | 0.00 | 0.05 | 0.05 | 84 | 1014.3 |
| 20260509161504 | 26 | 346 | 0.0 | 0.0 | 0.00 | 0.05 | 0.05 | 84 | 1014.4 |
| 20260509160959 | 26 | 340 | 0.0 | 0.0 | 0.00 | 0.05 | 0.05 | 83 | 1014.7 |
| 20260509160455 | 26 | 218 | 0.0 | 0.0 | 0.00 | 0.05 | 0.05 | 82 | 1014.4 |
| 20260509155956 | 26 | 180 | 0.0 | 0.0 | 0.00 | 0.05 | 0.05 | 83 | 1014.3 |
| 20260509155452 | 26 | 309 | 0.0 | 0.0 | 0.00 | 0.05 | 0.05 | 83 | 1014.2 |
| 20260509154949 | 27 | 359 | 0.0 | 0.0 | 0.00 | 0.05 | 0.05 | 82 | 1014.6 |
| 20260509154445 | 27 | 288 | 0.0 | 0.0 | 0.00 | 0.05 | 0.05 | 83 | 1014.2 |
| 20260509153943 | 26 | 334 | 0.0 | 0.0 | 0.00 | 0.05 | 0.05 | 84 | 1014.2 |
| 20260509153439 | 26 | 336 | 0.0 | 0.0 | 0.00 | 0.05 | 0.05 | 85 | 1014.3 |
| 20260509152937 | 26 | 317 | 0.0 | 0.0 | 0.00 | 0.05 | 0.05 | 85 | 1014.1 |
| 20260509152432 | 26 | 305 | 0.0 | 0.0 | 0.00 | 0.05 | 0.05 | 85 | 1014.3 |
| 20260509151930 | 26 | 339 | 0.0 | 0.0 | 0.00 | 0.05 | 0.05 | 86 | 1014.3 |
| 20260509151426 | 26 | 32 | 0.0 | 0.0 | 0.00 | 0.05 | 0.05 | 85 | 1014.3 |
| 20260509150924 | 26 | 326 | 0.0 | 0.0 | 0.00 | 0.05 | 0.05 | 85 | 1014.7 |
| 20260509150421 | 26 | 329 | 0.0 | 0.0 | 0.00 | 0.05 | 0.05 | 84 | 1014.7 |
| 20260509145920 | 26 | 281 | 0.0 | 0.0 | 0.00 | 0.05 | 0.05 | 84 | 1014.7 |
| 20260509145419 | 26 | 259 | 0.0 | 0.0 | 0.00 | 0.05 | 0.05 | 86 | 1014.5 |
| 20260509144915 | 26 | 278 | 0.0 | 0.0 | 0.00 | 0.05 | 0.05 | 85 | 1014.4 |
| 20260509144412 | 26 | 359 | 0.0 | 0.0 | 0.00 | 0.05 | 0.05 | 86 | 1014.4 |
| 20260509143909 | 26 | 325 | 0.0 | 0.0 | 0.00 | 0.05 | 0.05 | 85 | 1014.5 |
| 20260509143407 | 26 | 306 | 0.0 | 0.0 | 0.00 | 0.05 | 0.05 | 85 | 1014.3 |
| 20260509142903 | 26 | 336 | 0.0 | 0.0 | 0.00 | 0.05 | 0.05 | 86 | 1014.4 |
| 20260509142359 | 26 | 345 | 0.0 | 0.0 | 0.00 | 0.05 | 0.05 | 86 | 1014.5 |
| 20260509141855 | 25 | 243 | 0.0 | 0.0 | 0.00 | 0.05 | 0.05 | 87 | 1014.2 |
| 20260509141352 | 25 | 284 | 0.0 | 0.0 | 0.00 | 0.05 | 0.05 | 87 | 1014.5 |
| 20260509140848 | 25 | 285 | 0.0 | 0.0 | 0.00 | 0.05 | 0.05 | 87 | 1014.5 |
| 20260509140345 | 25 | 341 | 0.0 | 0.0 | 0.00 | 0.05 | 0.05 | 88 | 1014.8 |
| 20260509135844 | 25 | 108 | 0.0 | 0.0 | 0.00 | 0.05 | 0.05 | 88 | 1014.5 |
| 20260509135341 | 25 | 293 | 0.0 | 0.0 | 0.00 | 0.05 | 0.05 | 89 | 1014.7 |
| 20260509134838 | 25 | 244 | 0.0 | 0.0 | 0.00 | 0.05 | 0.05 | 89 | 1014.6 |
| 20260509134335 | 25 | 304 | 0.0 | 0.0 | 0.00 | 0.05 | 0.05 | 89 | 1014.2 |
| 20260509133832 | 25 | 260 | 0.0 | 0.0 | 0.00 | 0.05 | 0.05 | 90 | 1014.3 |
| 20260509133328 | 25 | 333 | 0.0 | 0.0 | 0.00 | 0.05 | 0.05 | 90 | 1014.1 |
| 20260509132828 | 24 | 290 | 0.0 | 0.0 | 0.00 | 0.05 | 0.05 | 91 | 1013.9 |
| 20260509132325 | 24 | 357 | 0.0 | 0.0 | 0.00 | 0.05 | 0.05 | 91 | 1013.7 |
| 20260509131822 | 24 | 317 | 0.0 | 0.0 | 0.00 | 0.05 | 0.05 | 92 | 1013.7 |
| 20260509131319 | 24 | 335 | 0.0 | 0.0 | 0.00 | 0.05 | 0.05 | 92 | 1013.7 |
| 20260509130815 | 23 | 354 | 0.0 | 0.0 | 0.00 | 0.05 | 0.05 | 93 | 1013.6 |
| 20260509130311 | 23 | 218 | 0.0 | 0.0 | 0.00 | 0.05 | 0.05 | 94 | 1013.7 |
| 20260509125808 | 23 | 5 | 0.0 | 0.0 | 0.00 | 0.05 | 0.05 | 95 | 1013.9 |
| 20260509125307 | 23 | 0 | 0.0 | 0.0 | 0.00 | 0.05 | 0.05 | 96 | 1013.7 |
| 20260509124801 | 23 | 350 | 0.0 | 0.0 | 0.00 | 0.05 | 0.05 | 97 | 1013.7 |
| 20260509124257 | 22 | 333 | 0.0 | 0.0 | 0.00 | 0.05 | 0.05 | 97 | 1013.6 |
| 20260509123756 | 22 | 327 | 0.0 | 0.0 | 0.00 | 0.05 | 0.05 | 98 | 1013.5 |
| 20260509123253 | 22 | 38 | 0.0 | 0.0 | 0.00 | 0.05 | 0.05 | 99 | 1013.7 |
| 20260509122748 | 22 | 121 | 0.0 | 0.0 | 0.00 | 0.05 | 0.05 | 99 | 1013.5 |